DIRECTV 15

Last updated on Fri Oct 11 2024 00:02:40 GMT+0000 (Coordinated Universal Time)

1 40663U 15026A 24284.55978964 -.00000098 00000+0 00000+0 0 9992 2 40663 0.0387 84.7156 0000122 20.4883 13.1320 1.00271110 34314
UTC large
Height (km)
Speed (km/s)
/
Latitude / Longitude
Inclination (degrees)
Orbital Period (minutes)
Azimuth
Elevation
Range (km)
Doppler Factor

Next 0 passes for location: London (51.5072 / 0.1276)

Sorry there are no passes over London.